Погода в Усть-Югане

Россия / Ханты-Мансийский автономный округ - Югра     60°56′02″N   73°06′29″E
темп.,
°C
ветер,
м/с
пор.,
м/с
влажн.,
%
обл.,
%
осадки,
мм/ч
давл.,
гПа
погр.,
м
17 мая, пн
пн1723:00+9юв228249 0.0 101524
02:00+9ююв2383100 0.0 101479
05:00+9ююв3689100 0.0 1013204
08:00+15ююз4578100 0.0 1011581
11:00+17з4874100 1.0 1009976
14:00+19зсз366994 0.6 1009636
17:00+20ссз5663100 1.8 1007882
20:00+14св4685100 0.6 1006258
18 мая, вт
вт1823:00+10св4689100 0.6 1009369
02:00+9св5689100 0.0 1009382
05:00+8св5984100 0.0 1011505
08:00+9св697395 0.0 1013671
11:00+12св6753100 0.0 10151340
14:00+14ссв66396 0.0 10161913
17:00+13с77375 0.0 10171800
20:00+11с69425 0.0 1019399
19 мая, ср
ср1923:00+7ссв365386 0.0 102099
02:00+6с486024 0.0 1021201
05:00+5с5866100 0.0 1022336
08:00+7св68576 0.0 10241009
11:00+9ссв67345 0.0 10251845
14:00+9с77315 0.0 10251792
17:00+9ссв67315 0.0 10251807
20:00+7ссв4638100 0.0 1025303
20 мая, чт
чт2023:00+6в2243100 0.0 102432
02:00+5ю3548100 0.0 1023191
05:00+3юз5777100 0.6 1022596
08:00+2ю71394100 4.6 1018427
11:00+6ююз71184100 4.9 1015705
14:00+11ююв4574100 0.1 1012438
17:00+9юв5482100 0.3 1013209
20:00+7ююв3490100 0.0 1014123
21 мая, пт
пт2123:00+6ю22957 0.0 101439
02:00+7ююз34945 0.0 101454
05:00+11зюз259496 0.6 1014118
08:00+19зюз610715 0.6 1012400
11:00+25сз6104377 0.6 10121276
14:00+29сз8112838 0.0 10113387
17:00+28ссз693137 0.0 10111002
20:00+22ссв225273 0.0 101215